This demonstration page uses our WeatherBlox Daily Observations layout. Learn more.

Left ArrowRight Arrow

39.29038, -76.61219

Hourly Observations for January 17, 2015

Temp ( °F °C ) Dew Point ( °F °C ) Humidity (%) Winds ( mph kmh ) Pressure ( in mb ) Visibility ( mi km ) Precip ( " mm )
12:54 am 00:54 undefined 30 -1.1 11 -11.7 45 45 undefined N/A 30.28 1025 N/A 0.00 0.00
1:54 am 01:54 undefined 29 -1.7 8 -13.3 41 41 undefined N/A 30.30 1026 N/A 0.00 0.00
2:54 am 02:54 undefined 28 -2.2 8 -13.3 43 43 undefined N/A 30.33 1027 N/A 0.00 0.00
3:54 am 03:54 undefined 27 -2.8 7 -13.9 43 43 undefined N/A 30.33 1027 N/A 0.00 0.00
4:54 am 04:54 undefined 26 -3.3 7 -13.9 44 44 undefined N/A 30.40 1029 N/A 0.00 0.00
5:54 am 05:54 undefined 25 -3.9 8 -13.3 48 48 undefined N/A 30.30 1026 N/A 0.00 0.00
6:54 am 06:54 undefined 24 -4.4 7 -13.9 48 48 undefined N/A 30.43 1031 N/A 0.00 0.00
7:54 am 07:54 undefined 23 -5 6 -14.4 48 48 undefined N/A 30.37 1029 N/A 0.00 0.00
8:54 am 08:54 undefined 25 -3.9 5 -15 42 42 undefined N/A 30.41 1030 N/A 0.00 0.00
9:54 am 09:54 undefined 25 -3.9 6 -14.4 44 44 undefined N/A 30.44 1031 N/A 0.00 0.00
10:54 am 10:54 undefined 27 -2.8 9 -12.8 46 46 undefined N/A 30.44 1031 N/A 0.00 0.00
11:54 am 11:54 undefined 30 -1.1 13 -10.6 49 49 undefined N/A 30.40 1030 N/A 0.00 0.00
12:54 pm 12:54 undefined 30 -1.1 11 -11.7 45 45 undefined N/A 30.40 1029 N/A 0.00 0.00
1:54 pm 13:54 undefined 31 -0.6 12 -11.1 45 45 undefined N/A 30.35 1028 N/A 0.00 0.00
2:54 pm 14:54 undefined 32 0 11 -11.7 41 41 undefined N/A 30.30 1026 N/A 0.00 0.00
3:54 pm 15:54 undefined 32 0 13 -10.6 45 45 undefined N/A 30.28 1025 N/A 0.00 0.00
4:54 pm 16:54 undefined 33 0.6 16 -8.9 49 49 undefined N/A 30.27 1025 N/A 0.00 0.00
5:54 pm 17:54 undefined 32 0 16 -8.9 52 52 undefined N/A 30.27 1025 N/A 0.00 0.00
6:54 pm 18:54 undefined 32 0 19 -7.2 59 59 undefined N/A 30.28 1025 N/A 0.00 0.00
7:54 pm 19:54 undefined 33 0.6 22 -5.6 64 64 undefined N/A 30.27 1025 N/A 0.00 0.00
8:54 pm 20:54 undefined 33 0.6 24 -4.4 70 70 undefined N/A 30.26 1025 N/A 0.00 0.00
9:54 pm 21:54 undefined 32 0 25 -3.9 75 75 undefined N/A 30.23 1024 N/A 0.00 0.00
10:54 pm 22:54 undefined 32 0 25 -3.9 75 75 undefined N/A 30.22 1023 N/A 0.00 0.00
11:54 pm 23:54 undefined 32 0 26 -3.3 79 79 undefined N/A 30.19 1022 N/A 0.00 0.00

Powered by AerisWeather